{"data":{"norad_id":62630,"epoch":"2026-09-22T16:35:00.973536Z","epoch_age_seconds":128286,"freshness":"FRESH","line1":"1 62630U 25009X   26265.69098349  .00001184  00000+0  86510-4 0  9999","line2":"2 62630  97.4767 335.8954 0005280 152.8172 207.3332 15.05470802 92651","mean_motion":15.05470802,"eccentricity":0.000528,"inclination_deg":97.4767,"raan_deg":335.8954,"arg_perigee_deg":152.8172,"mean_anomaly_deg":207.3332,"bstar":8.651e-5,"rev_number":9265,"period_min":95.651141030897,"perigee_km":546.4027921799,"apogee_km":553.71896914187,"semimajor_km":6928.1978806609,"source":"CELESTRAK","updated_at":"2026-09-23T09:00:21.533334Z"}}